Regional Weather Roundup
Issued by NWS

Home | Current Version | Previous Version | Text Only | Print | Product List | Glossary On
Versions: 1 2 3 4 5 6 7 8 9 10 11 12 13 14 15 16 17 18 19 20 21 22 23 24 25 26 27 28
000
ASUS45 KREV 191510
RWRNV
NEVADA REGIONAL WEATHER ROUNDUP
NATIONAL WEATHER SERVICE RENO NV
800 AM PDT TUE SEP 19 2017

NOTE: "FAIR" INDICATES FEW OR NO CLOUDS BELOW 12,000 FEET WITH NO
SIGNIFICANT WEATHER AND/OR OBSTRUCTIONS TO VISIBILITY.

NVZ001-003-004-191600-
WESTERN NEVADA

CITY           SKY/WX    TMP DP  RH WIND       PRES   REMARKS
RENO           PTSUNNY   54  34  46 NE5       29.98R
CARSON CITY    FAIR      57  25  28 W6        29.97R
MINDEN         FAIR      52  23  32 S5        29.96R
SLIDE MTN        N/A     32  16  51 W35         N/A
PYRAMID LAKE     N/A     52 N/A N/A NW6         N/A
FALLON         PTSUNNY   53  36  52 NE5       29.96R
LOVELOCK       MOSUNNY   54  31  41 N8        29.96R
HAWTHORNE      SUNNY     59  37  44 NW18G24   29.93R
$$

NVZ002-CAZ072-073-191600-
NORTHERN AND CENTRAL SIERRA

CITY           SKY/WX    TMP DP  RH WIND       PRES   REMARKS
S. LAKE TAHOE  SUNNY     48  33  56 S13       30.03S
SQUAW VLY 8000   N/A     36  32  87 SW13        N/A
SUSANVILLE     SUNNY     46  34  61 CALM      30.02R
BLUE CANYON    SUNNY     44  43  96 CALM      30.06S
MAMMOTH LAKES  FAIR      55  24  30 E8        30.03R
BRIDGEPORT     FAIR      53  15  22 SW8G17    29.99R
$$

NVZ030-031-036-191600-
NORTHERN NEVADA

CITY           SKY/WX    TMP DP  RH WIND       PRES   REMARKS
ELKO           CLOUDY    51  32  48 W15       29.93R
WINNEMUCCA     MOSUNNY   51  28  41 W9        29.97R
WENDOVER       PTSUNNY   55  36  48 S8        29.88R
$$

NVZ035-037-191600-
CENTRAL NEVADA

CITY           SKY/WX    TMP DP  RH WIND       PRES   REMARKS
ELY            MOSUNNY   53  35  50 CALM      29.94R
$$

NVZ013-014-191600-
SOUTH CENTRAL NEVADA

CITY           SKY/WX    TMP DP  RH WIND       PRES   REMARKS
TONOPAH        PTSUNNY   54  31  41 CALM      29.95R
$$

NVZ017-020-022-191600-
SOUTHERN NEVADA

CITY           SKY/WX    TMP DP  RH WIND       PRES   REMARKS
LAS VEGAS      PTSUNNY   75  40  28 S14G25    29.77R
N. LAS VEGAS   PTSUNNY   74  35  24 SW8       29.77R
NELLIS AFB     PTSUNNY   76  40  27 S20       29.76R
HENDERSON      PTSUNNY   74  40  29 SW21      29.81R
MERCURY        PTSUNNY   69  35  28 VRB3      29.83R
$$




USA.gov is the U.S. government's official web portal to all federal, state and local government web resources and services.